Location: Pine Mountain Observatory
(43.7910°N, 120.9377°W)
Time: 19:03:58
(UTC-07:00)

Envisat - Visible Passes

Search period start: 17 October 2019 00:00
Search period end: 27 October 2019 00:00
Orbit: 764 x 766 km, 98.1° (Epoch: 17 October)

Date Brightness Start Highest point End Pass type
(mag) Time Alt. Az. Time Alt. Az. Time Alt. Az.
17 Oct 3.0 19:03:11 10° SSE 19:08:15 86° ENE 19:13:21 10° NNW visible
17 Oct 6.2 20:46:15 10° WSW 20:47:56 12° W 20:49:38 10° WNW visible
18 Oct 5.2 20:06:35 10° SSW 20:10:46 26° W 20:14:58 10° NW visible
19 Oct 6.5 06:36:21 10° ENE 06:38:22 12° E 06:40:23 10° ESE visible
19 Oct 3.8 19:28:49 10° S 19:33:47 55° W 19:38:47 10° NNW visible
20 Oct 3.0 18:51:59 10° SSE 18:57:00 69° ENE 19:02:04 10° N visible
20 Oct 6.0 20:33:42 10° WSW 20:36:32 15° W 20:39:22 10° NW visible
21 Oct 4.8 19:54:54 10° SSW 19:59:25 32° W 20:03:57 10° NNW visible
22 Oct 3.3 19:17:27 10° S 19:22:29 70° WSW 19:27:34 10° NNW visible
23 Oct 3.1 18:40:51 10° SSE 18:45:46 55° ENE 18:50:44 10° N visible
23 Oct 5.7 20:21:37 10° SW 20:25:08 19° W 20:28:41 10° NW visible
24 Oct 6.1 06:49:30 10° NE 06:52:48 17° E 06:56:05 10° SE visible
24 Oct 4.4 19:43:20 10° SSW 19:48:05 40° W 19:52:51 10° NNW visible
25 Oct 3.0 19:06:09 10° SSE 19:11:13 87° WSW 19:16:20 10° NNW visible
25 Oct 6.3 20:50:08 10° W 20:50:58 10° W 20:51:48 10° WNW visible
26 Oct 3.3 18:29:47 10° SE 18:34:34 44° ENE 18:39:22 10° N visible
26 Oct 5.3 20:09:45 10° SW 20:13:46 23° W 20:17:49 10° NW visible
